DELTA 1 DEB, 10768

Orbit data source: Space-Track

DELTA 1 DEB, 10768 is space debris in SSO originally from a launch on Thu, 29 Jul 1976 UTC launched from the Air Force Western Test Range (AFWTR). Debris objects in space refer to the collection of defunct objects orbiting the Earth. Examples of debris include non-operational satellites, rocket bodies, and fragments generated from explosions, collisions, or faulty payload assembly.

Loading next visibility...
Identifier
10768, 1976-077BR
Orbit
SSO
Country
Flag of USUS
Related business
Manufacturer
Unknown
Mission
Spacecraft
Bus & Motor
Unknown
Mass
Unknown
Launch date (UTC)
1976-07-29 (49 years ago)
Launch vehicle
Unknown
Launch site
Air Force Western Test Range (AFWTR)
Object type
Payload
Rocket body
Debris
Shape & HBR
Unknown shape, 0.1 m
Radar Cross Section
Small (<0.1 m²)

Expand to show TLE details & history
Last TLE update: 23 hours ago

TLE from 23 hours ago
0 DELTA 1 DEB
1 10768U 76077BR  25347.15273834  .00000179  00000-0  19306-2 0  9991
2 10768 102.3691  57.1017 0073865 284.1224 131.5006 12.28568002213320
Epoch: 2025-12-13T03:39Z
TLE epoch observation values (Epoch: 2025-12-13T03:39:56.592Z)
Latitude
54.40462°
Longitude
-97.71952°
Altitude
1,603.245 km
Speed
7.056 km/s
True Right ascension
02h 37m 24s
True Declination
54° 15' 32"
Sunlit
Object was in full shadow at epoch
Visualization orbit readout
Latitude
Unknown
Longitude
Unknown
Altitude
Unknown
Speed
Unknown
Apparent Right ascension
Unknown
Apparent Declination
Unknown
Sunlit
N/A
Visualization observer readout
Local Sidereal Time
01:09:18
Azimuth
Unknown
Elevation
Unknown
Doppler factor
Unknown
Orbital elements
Apogee altitude
1,611.635 km
Perigee altitude
1,494.468 km
Semi-major axis
7,931.189 km
Eccentricity
0.00739
Inclination
102.3691°
RAAN
57.1017°
Arg. of periapsis
284.1224°
True anomaly
132.13066°
Mean anomaly
131.5006°
Eccentric anomaly
131.81602°
Mean motion
3.07281 °/min
Orbital period
117.16 mins
BSTAR
0.0019306
Loading maneuver chart data...
Computing Atmospheric mass density...
Loading historical data...
Loading historical data...
Loading historical data...
Loading historical data...
Loading historical data...
Loading historical data...
Loading historical data...

Documentation

Showing up to 5 results
|